Location: Middlebury
(44.0133°N, 73.1813°W)
Time: 02:22:57
(UTC-05:00)

ISS - Pass Details

Date: 19 January 2020
Orbit: 415 x 422 km, 51.6° (Epoch: 22 February)

Event Time Altitude Azimuth Distance (km) Brightness Sun altitude
Rises 19:15:37 0° 228° (SW) 2,367 0.8 -26.7°
Reaches altitude 10° 19:17:43 10° 225° (SW) 1,504 -0.4 -27.1°
Enters shadow 19:18:31 16° 222° (SW) 1,191 -1.0 -27.2°
